Location: Bathurst
(33.4193°S, 149.5775°E)
Time: 01:47:57
(UTC+10:00)

A-11 Canister half - Pass Details

Date: 21 June 2021
Orbit: 1513 x 1687 km, 47.2° (Epoch: 28 July)

Event Time Altitude Azimuth Distance (km) Brightness Sun altitude
Rises 21:52:30 0° 234° (SW) 4,809 12.0 -59.7°
Reaches altitude 10° 21:55:36 10° 232° (SW) 3,845 11.3 -60.3°
Enters shadow 21:56:41 14° 231° (SW) 3,516 11.1 -60.5°
